Regional Weather Roundup
Issued by NWS Northern Indiana

Home | Current Version | Previous Version | Graphics & Text | Print | Product List | Glossary On
Versions: 1 2 3 4 5 6 7 8 9 10 11 12 13 14 15 16 17 18 19 20 21 22 23 24 25 26 27 28 29 30 31 32 33 34 35 36 37 38 39 40 41 42 43 44 45 46 47 48 49 50
000
ASUS43 KIWX 312110
RWRIWX

KIWX WEATHER ROUNDUP
NATIONAL WEATHER SERVICE NORTHERN INDIANA
500 PM EDT MON AUG 31 2015

NOTE: "FAIR" INDICATES FEW OR NO CLOUDS BELOW 12,000 FEET WITH NO
SIGNIFICANT WEATHER AND/OR OBSTRUCTIONS TO VISIBILITY.

* THESE STATIONS ARE NOT UNDER NWS QUALITY CONTROL. THEY ALSO MAY NOT
  REPORT WEATHER SUCH AS PRECIPITATION OR FOG.

INZ001>027-312200-
NORTHERN INDIANA

CITY           SKY/WX    TMP DP  RH WIND       PRES   REMARKS
GARY*          MOSUNNY   82  68  61 CALM      30.03F
VALPARAISO     FAIR      85  70  60 VRB5      30.04F
MICHIGAN CITY* FAIR      81  68  65 N3        30.04F
LAPORTE*       FAIR      85  70  60 W6        30.04F
KNOX*          FAIR      86  64  48 W6        30.02F
SOUTH BEND     FAIR      83  68  60 W7        30.05F
ELKHART*       SUNNY     84  66  54 SW5       30.05F
GOSHEN         FAIR      84  69  60 NW7       30.04F
MONTICELLO*    PTSUNNY   85  70  60 S6        30.03F
LOGANSPORT*    FAIR      86  61  42 SW7       30.05F
ROCHESTER*     FAIR      88  68  51 CALM      30.04F
WARSAW*        FAIR      84  66  54 CALM      30.04F
ANGOLA*        MOSUNNY   88  70  55 W8        30.05F
FORT WAYNE     FAIR      86  68  54 W7        30.05F
HUNTINGTON*    PTSUNNY   84  63  49 SW3       30.05S
PERU/GRISSOM     N/A     87  68  54 SW8       30.04F
MARION*        FAIR      84  57  39 NW3       30.06F

$$
INZ028>050-312200-
CENTRAL INDIANA

CITY           SKY/WX    TMP DP  RH WIND       PRES   REMARKS
LAFAYETTE      FAIR      86  66  51 SW10      30.03F
KOKOMO*        FAIR      88  66  48 W12       30.05F
MUNCIE*        FAIR      84  67  56 W8        30.06F
INDIANAPOLIS   FAIR      85  65  51 SW13      30.06F

$$
MIZ043>046-050>051-056>058-064>065-071>073-077>080-312200-
SOUTHWEST LOWER MICHIGAN

CITY           SKY/WX    TMP DP  RH WIND       PRES   REMARKS
BATTLE CREEK   FAIR      82  67  60 W6        30.06F
BENTON HARBOR  FAIR      78  66  66 W7        30.04F
COLDWATER*     FAIR      83  67  57 W6        30.05F
HILLSDALE*     FAIR      85  64  49 SW6       30.06F
HOLLAND        FAIR      80  66  62 W8        30.06S
GRAND RAPIDS   FAIR      80  67  64 SW6       30.05F
KALAMAZOO      FAIR      83  66  56 W9        30.05F
STURGIS*       FAIR      82  70  65 W6        30.05F
THREE RIVERS*  FAIR      84  68  58 W3        30.05F

$$
OHZ001>008-015>018-024>025-312200-
NORTHWEST OHIO

CITY           SKY/WX    TMP DP  RH WIND       PRES   REMARKS
WAUSEON*       FAIR      86  70  58 VRB7      30.04F
DEFIANCE       FAIR      87  66  49 W6        30.04F
FINDLAY        FAIR      87  68  52 SW6       30.04F
TOLEDO EXPRESS FAIR      85  67  54 W8        30.03F
TOLEDO METCALF FAIR      86  66  51 W7        30.04F
LIMA           FAIR      85  66  53 SW7       30.06F

$$
AND FOR LAKE MICHIGAN COASTAL AND OPEN LAKE BUOY OBSERVATIONS

STATION/POSITION TEMP    WIND        PRES    VSBY  WAVE
                 AIR SEA DIR/SP/G                  HT/PER
                 (F)     (DEG/KT/KT) (MB)    (MI)  (FT/S)
CALUMET HARBOR    74      50/  6/  8   N/A
MICHIGAN CITY     72      30/  7/  8   N/A
BURNS HARBOR      76      70/  8/  9 1017.9F
SAINT JOSEPH      75     320/  3/  3 1017.9S
SOUTH LAKE BUOY   70 71  170/  6/  6 1017.0F
4 MI NW BRIDGMAN  74 76   50/  4/  4   N/A           0
MICHIGAN CITY     74 73   70/  6/  6   N/A           0

$$
&&



USA.gov is the U.S. government's official web portal to all federal, state and local government web resources and services.